カタログに戻る

TURKSAT 4A

運用中通信GEO
NORAD 39522·PAYLOAD·🇹🇷 Turkey

打ち上げ Feb 14, 2014 から Baikonur Cosmodrome

Loading…

TLE

最新Source: Space-Track

元期: Sep 14, 2026, 19:08 UTC

1 39522U 14007A   26257.79728770  .00000139  00000-0  00000-0 0  9995
2 39522   0.0745 287.3816 0003403 317.3554  78.0493  1.00270673 45862

AllMySatでTURKSAT 4Aをリアルタイム追跡

Download on the App Store